This demonstration page uses our WeatherBlox Daily Observations layout. Learn more.

Left ArrowRight Arrow

39.12711, -84.51439

Hourly Observations for November 24, 2020

Temp ( °F °C ) Dew Point ( °F °C ) Humidity (%) Winds ( mph kmh ) Pressure ( in mb ) Visibility ( mi km ) Precip ( " mm )
12:53 am 00:53 Mostly Cloudy 35 1.7 33 0.6 93 93 Calm 30.35 1028 8 13 0.00 0.00
1:53 am 01:53 Mostly Cloudy 36 2.2 34 1.1 93 93 Calm 30.33 1027 8 13 0.00 0.00
2:53 am 02:53 Cloudy 36 2.2 35 1.7 97 97 Calm 30.35 1028 9 14 0.00 0.00
3:53 am 03:53 Cloudy 37 2.8 35 1.7 93 93 Calm 30.34 1027 10 16 0.00 0.00
4:53 am 04:53 Mostly Cloudy 37 2.8 35 1.7 93 93 NE 3 6 30.34 1027 10 16 0.00 0.00
5:53 am 05:53 Cloudy 38 3.3 35 1.7 89 89 NNE 5 7 30.33 1027 10 16 0.00 0.00
6:53 am 06:53 Cloudy 39 3.9 35 1.7 86 86 Calm 30.35 1028 10 16 0.00 0.00
7:53 am 07:53 Mostly Cloudy 39 3.9 36 2.2 89 89 Calm 30.34 1027 9 14 0.00 0.00
8:53 am 08:53 Cloudy 41 5 35 1.7 79 79 Calm 30.35 1028 10 16 0.00 0.00
9:53 am 09:53 Cloudy 43 6.1 36 2.2 76 76 Calm 30.34 1027 10 16 0.00 0.00
10:53 am 10:53 Cloudy with Light Rain 44 6.7 34 1.1 68 68 ESE 5 7 30.32 1027 10 16 0.00 0.00
11:53 am 11:53 Cloudy 46 7.8 34 1.1 63 63 E 8 13 30.29 1026 10 16 0.00 0.00
12:53 pm 12:53 Mostly Cloudy 48 8.9 34 1.1 58 58 SE 10 17 30.24 1024 10 16 0.00 0.00
1:53 pm 13:53 Sunny 49 9.4 34 1.1 56 56 SE 8 13 30.21 1023 10 16 0.00 0.00
2:53 pm 14:53 Sunny 50 10 35 1.7 57 57 ESE 6 9 30.18 1022 10 16 0.00 0.00
3:53 pm 15:53 Sunny 49 9.4 36 2.2 61 61 ESE 3 6 30.16 1021 10 16 0.00 0.00
4:53 pm 16:53 Sunny 48 8.9 35 1.7 61 61 Calm 30.15 1021 10 16 0.00 0.00
5:53 pm 17:53 Clear 47 8.3 35 1.7 63 63 Calm 30.14 1021 10 16 0.00 0.00
6:53 pm 18:53 Clear 44 6.7 35 1.7 71 71 Calm 30.14 1021 10 16 0.00 0.00
7:53 pm 19:53 Clear 41 5 36 2.2 82 82 Calm 30.13 1020 10 16 0.00 0.00
8:53 pm 20:53 Clear 40 4.4 36 2.2 86 86 Calm 30.12 1020 10 16 0.00 0.00
9:53 pm 21:53 Clear 39 3.9 36 2.2 89 89 Calm 30.10 1019 10 16 0.00 0.00
10:53 pm 22:53 Clear 37 2.8 35 1.7 93 93 Calm 30.08 1019 10 16 0.00 0.00
11:53 pm 23:53 Clear 40 4.4 36 2.2 86 86 W 6 9 30.05 1018 10 16 0.00 0.00

Powered by AerisWeather